KS5S Weather Reports


Display with metric or nautical units.
time (UTC)temp
F
wind
direction
speed
MPH
gust
MPH
rain 1hr
in
rain 24hr
in
rain mn
in
humidity
%
barometer
mb
20260505121547 70 175 7.0 10.0 0.00 0.00 0.00 94 1002.8
20260505121044 70 200 6.0 14.0 0.00 0.00 0.00 95 1002.7
20260505120540 70 186 7.0 9.0 0.00 0.00 0.00 95 1002.9
20260505120036 69 193 6.0 12.0 0.00 0.00 0.00 95 1002.6
20260505115531 69 213 5.0 13.0 0.00 0.00 0.00 95 1002.7
20260505115029 69 200 4.0 14.0 0.00 0.00 0.00 95 1002.7
20260505114525 69 228 2.0 11.0 0.00 0.00 0.00 95 1002.6
20260505114022 69 192 7.0 11.0 0.00 0.00 0.00 95 1002.5
20260505113518 69 180 10.0 14.0 0.00 0.00 0.00 95 1002.9
20260505113015 69 212 7.0 8.0 0.00 0.00 0.00 95 1002.7
20260505112510 69 196 5.0 11.0 0.00 0.00 0.00 95 1002.5
20260505112009 69 185 8.0 13.0 0.00 0.00 0.00 96 1002.6
20260505111502 69 180 4.0 13.0 0.00 0.00 0.00 95 1002.6
20260505110959 69 218 3.0 12.0 0.00 0.00 0.00 95 1002.7
20260505110455 69 192 2.0 9.0 0.00 0.00 0.00 95 1002.5
20260505101927 70 225 2.0 10.0 0.00 0.00 0.00 94 1002.5
20260505101421 70 178 4.0 12.0 0.00 0.00 0.00 94 1002.6
20260505100917 70 175 6.0 11.0 0.00 0.00 0.00 94 1002.4
20260505100414 70 175 7.0 13.0 0.00 0.00 0.00 94 1002.4
20260505095910 70 198 5.0 11.0 0.00 0.00 0.00 94 1002.8
20260505095407 70 206 3.0 8.0 0.00 0.00 0.00 94 1002.8
20260505094903 70 156 5.0 12.0 0.00 0.00 0.00 93 1002.6
20260505094401 70 202 3.0 11.0 0.00 0.00 0.00 93 1002.7
20260505093856 70 203 7.0 11.0 0.00 0.00 0.00 93 1002.6
20260505093353 70 185 6.0 10.0 0.00 0.00 0.00 93 1003.0
20260505092851 70 180 6.0 13.0 0.00 0.00 0.00 93 1003.1
20260505092349 71 161 3.0 13.0 0.00 0.00 0.00 92 1002.9
20260505091845 71 183 11.0 11.0 0.00 0.00 0.00 92 1002.9
20260505091343 71 197 7.0 10.0 0.00 0.00 0.00 92 1002.8
20260505090841 71 165 5.0 16.0 0.00 0.00 0.00 92 1003.0
20260505090339 71 183 9.0 16.0 0.00 0.00 0.00 91 1003.3
20260505085836 71 198 6.0 10.0 0.00 0.00 0.00 91 1003.2
20260505085334 71 188 8.0 20.0 0.00 0.00 0.00 91 1003.2
20260505084832 71 200 10.0 14.0 0.00 0.00 0.00 91 1003.3
20260505084330 71 198 7.0 13.0 0.00 0.00 0.00 91 1002.9
20260505083826 71 206 4.0 17.0 0.00 0.00 0.00 91 1003.1
20260505083324 71 251 4.0 10.0 0.00 0.00 0.00 91 1003.2
20260505082821 71 172 5.0 14.0 0.00 0.00 0.00 91 1003.1
20260505082317 71 188 3.0 14.0 0.00 0.00 0.00 90 1003.0
20260505081814 71 165 8.0 18.0 0.00 0.00 0.00 90 1003.1
20260505081310 71 172 9.0 19.0 0.00 0.00 0.00 90 1003.1
20260505080807 71 180 12.0 16.0 0.00 0.00 0.00 90 1003.3
20260505080303 71 165 8.0 15.0 0.00 0.00 0.00 90 1003.2
20260505075758 71 196 4.0 18.0 0.00 0.00 0.00 90 1003.3
20260505075256 71 183 7.0 17.0 0.00 0.00 0.00 90 1003.3
20260505074753 71 193 5.0 14.0 0.00 0.00 0.00 89 1003.5
20260505074250 72 175 8.0 18.0 0.00 0.00 0.00 89 1003.7
20260505073748 72 183 7.0 14.0 0.00 0.00 0.00 89 1003.4
20260505073245 72 166 4.0 12.0 0.00 0.00 0.00 89 1003.5
20260505072742 72 210 5.0 19.0 0.00 0.00 0.00 88 1003.4
20260505072238 72 228 4.0 13.0 0.00 0.00 0.00 88 1003.5
20260505071734 72 201 4.0 15.0 0.00 0.00 0.00 88 1003.9
20260505071231 72 184 4.0 12.0 0.00 0.00 0.00 88 1003.8
20260505070728 72 180 8.0 18.0 0.00 0.00 0.00 87 1003.8
20260505070224 72 238 3.0 20.0 0.00 0.00 0.00 87 1004.0
20260505065720 72 180 11.0 13.0 0.00 0.00 0.00 87 1004.1
20260505065217 73 166 3.0 20.0 0.00 0.00 0.00 86 1004.2
20260505064714 73 172 5.0 17.0 0.00 0.00 0.00 86 1004.3
20260505064212 73 180 2.0 14.0 0.00 0.00 0.00 86 1004.3
20260505063709 73 177 13.0 13.0 0.00 0.00 0.00 85 1004.4
20260505063205 73 180 13.0 17.0 0.00 0.00 0.00 85 1004.6
20260505062701 73 187 8.0 12.0 0.00 0.00 0.00 85 1004.6
20260505062200 73 182 7.0 13.0 0.00 0.00 0.00 84 1004.6
20260505061656 73 189 8.0 18.0 0.00 0.00 0.00 84 1004.4
20260505061154 73 185 4.0 14.0 0.00 0.00 0.00 84 1004.6
20260505060651 73 198 5.0 13.0 0.00 0.00 0.00 83 1004.5
20260505060148 73 210 4.0 21.0 0.00 0.00 0.00 83 1004.2
20260505055643 73 181 10.0 18.0 0.00 0.00 0.00 82 1004.2
20260505055140 73 176 5.0 20.0 0.00 0.00 0.00 82 1004.2
20260505054638 74 183 13.0 20.0 0.00 0.00 0.00 81 1004.4
20260505054136 74 185 6.0 19.0 0.00 0.00 0.00 81 1004.2
20260505053633 74 192 9.0 14.0 0.00 0.00 0.00 81 1004.2
20260505053129 74 188 13.0 16.0 0.00 0.00 0.00 80 1004.2
20260505052626 74 185 4.0 17.0 0.00 0.00 0.00 80 1004.4
20260505052124 74 215 7.0 15.0 0.00 0.00 0.00 80 1004.1
20260505051621 74 182 5.0 14.0 0.00 0.00 0.00 79 1004.5
20260505051119 74 172 6.0 13.0 0.00 0.00 0.00 79 1004.7
20260505050616 74 197 5.0 16.0 0.00 0.00 0.00 79 1004.7
20260505050114 75 174 9.0 19.0 0.00 0.00 0.00 78 1004.8
20260505041544 76 170 4.0 17.0 0.00 0.00 0.00 75 1004.6
20260505041041 76 191 8.0 15.0 0.00 0.00 0.00 76 1004.8
20260505040539 76 161 4.0 17.0 0.00 0.00 0.00 76 1004.7
20260505040036 76 190 6.0 12.0 0.00 0.00 0.00 76 1004.8
20260505035531 76 224 3.0 15.0 0.00 0.00 0.00 75 1004.9
20260505035028 76 151 12.0 19.0 0.00 0.00 0.00 75 1004.8
20260505034525 76 188 3.0 18.0 0.00 0.00 0.00 75 1004.7
20260505034022 76 255 5.0 15.0 0.00 0.00 0.00 75 1004.7
20260505033519 76 180 7.0 14.0 0.00 0.00 0.00 75 1004.4
20260505033017 76 177 13.0 15.0 0.00 0.00 0.00 75 1004.7
20260505032514 76 156 4.0 15.0 0.00 0.00 0.00 75 1004.5
20260505032011 76 188 6.0 20.0 0.00 0.00 0.00 74 1004.1
20260505031508 76 137 5.0 15.0 0.00 0.00 0.00 75 1004.3
20260505031004 77 163 5.0 18.0 0.00 0.00 0.00 74 1004.3
20260505030501 77 161 9.0 19.0 0.00 0.00 0.00 74 1004.6
20260505025956 77 172 5.0 18.0 0.00 0.00 0.00 73 1004.6
20260505025453 77 157 7.0 17.0 0.00 0.00 0.00 73 1004.5
20260505024953 77 173 5.0 12.0 0.00 0.00 0.00 74 1004.6
20260505024449 77 157 13.0 19.0 0.00 0.00 0.00 73 1004.4
20260505023946 77 183 9.0 19.0 0.00 0.00 0.00 73 1004.3
20260505023443 77 187 6.0 10.0 0.00 0.00 0.00 73 1004.3
20260505022940 77 161 4.0 16.0 0.00 0.00 0.00 73 1004.4
20260505022438 77 154 9.0 13.0 0.00 0.00 0.00 73 1004.2
20260505021935 77 162 5.0 17.0 0.00 0.00 0.00 73 1004.3
20260505021431 77 172 16.0 18.0 0.00 0.00 0.00 73 1004.0
20260505020927 77 173 6.0 20.0 0.00 0.00 0.00 73 1004.1
20260505020422 77 163 5.0 11.0 0.00 0.00 0.00 73 1004.3
20260505015920 77 162 10.0 14.0 0.00 0.00 0.00 73 1004.1
20260505015417 77 159 5.0 13.0 0.00 0.00 0.00 73 1004.1
20260505014914 77 167 3.0 16.0 0.00 0.00 0.00 73 1003.9
20260505014411 77 169 7.0 14.0 0.00 0.00 0.00 73 1004.1
20260505013908 77 168 10.0 13.0 0.00 0.00 0.00 73 1004.0
20260505013404 77 204 2.0 14.0 0.00 0.00 0.00 73 1004.2
20260505012903 77 161 6.0 12.0 0.00 0.00 0.00 73 1004.1
20260505012400 77 169 5.0 14.0 0.00 0.00 0.00 72 1003.9
20260505011856 77 145 5.0 11.0 0.00 0.00 0.00 72 1004.2
20260505011353 77 180 15.0 16.0 0.00 0.00 0.00 72 1004.0
20260505010850 77 149 6.0 14.0 0.00 0.00 0.00 71 1004.0
20260505010345 78 155 5.0 13.0 0.00 0.00 0.00 72 1003.9
20260505005842 78 174 11.0 12.0 0.00 0.00 0.00 71 1003.9
20260505005339 78 177 4.0 17.0 0.00 0.00 0.00 71 1004.0
20260505004836 78 134 3.0 15.0 0.00 0.00 0.00 71 1004.0
20260505004332 78 148 5.0 12.0 0.00 0.00 0.00 71 1004.3
20260505003830 78 177 12.0 16.0 0.00 0.00 0.00 70 1004.1
20260505003327 78 154 8.0 16.0 0.00 0.00 0.00 70 1004.1
20260505002823 78 187 5.0 13.0 0.00 0.00 0.00 71 1004.4
20260505002320 78 145 7.0 15.0 0.00 0.00 0.00 70 1004.3
20260505001818 78 162 4.0 9.0 0.00 0.00 0.00 70 1004.4
20260505001315 79 171 6.0 18.0 0.00 0.00 0.00 69 1004.5
20260505000812 79 158 7.0 15.0 0.00 0.00 0.00 69 1004.6
20260505000310 79 166 17.0 18.0 0.00 0.00 0.00 68 1004.6
20260504235806 79 185 7.0 24.0 0.00 0.00 0.00 67 1004.6
20260504235304 80 193 13.0 19.0 0.00 0.00 0.00 67 1004.4
20260504234800 80 185 13.0 17.0 0.00 0.00 0.00 67 1004.5
20260504234258 80 174 5.0 12.0 0.00 0.00 0.00 67 1004.6
20260504233754 80 208 2.0 21.0 0.00 0.00 0.00 66 1004.4
20260504233249 80 172 6.0 19.0 0.00 0.00 0.00 66 1004.5
20260504232746 80 212 5.0 15.0 0.00 0.00 0.00 67 1004.6
20260504232243 80 190 14.0 15.0 0.00 0.00 0.00 66 1004.6
20260504231740 80 180 5.0 17.0 0.00 0.00 0.00 65 1004.8
20260504231237 80 175 12.0 15.0 0.00 0.00 0.00 65 1004.7
20260504230733 80 168 9.0 20.0 0.00 0.00 0.00 65 1005.2
20260504230232 81 212 3.0 17.0 0.00 0.00 0.00 65 1004.9
20260504225730 81 163 7.0 15.0 0.00 0.00 0.00 65 1004.9
20260504225226 81 189 7.0 29.0 0.00 0.00 0.00 64 1004.9
20260504224723 81 174 3.0 16.0 0.00 0.00 0.00 64 1005.0
20260504224220 81 176 12.0 20.0 0.00 0.00 0.00 65 1005.0
20260504223716 81 173 12.0 17.0 0.00 0.00 0.00 65 1004.7
20260504223212 81 175 10.0 24.0 0.00 0.00 0.00 64 1005.0
20260504222709 82 169 7.0 16.0 0.00 0.00 0.00 63 1005.0
20260504222206 81 170 6.0 17.0 0.00 0.00 0.00 64 1005.2
20260504221704 81 156 11.0 23.0 0.00 0.00 0.00 63 1005.4
20260504221201 81 179 4.0 18.0 0.00 0.00 0.00 62 1005.2
20260504220657 81 170 11.0 20.0 0.00 0.00 0.00 62 1005.3
20260504220155 81 165 8.0 22.0 0.00 0.00 0.00 62 1005.2
20260504215651 81 169 5.0 21.0 0.00 0.00 0.00 62 1005.4
20260504215148 81 173 4.0 15.0 0.00 0.00 0.00 62 1005.2
20260504214644 81 201 7.0 20.0 0.00 0.00 0.00 62 1005.5
20260504214141 81 148 19.0 24.0 0.00 0.00 0.00 61 1005.5
20260504213637 82 186 3.0 16.0 0.00 0.00 0.00 61 1005.6
20260504213134 81 159 21.0 21.0 0.00 0.00 0.00 62 1005.8
20260504212630 81 153 6.0 24.0 0.00 0.00 0.00 62 1005.7
20260504212127 82 180 9.0 18.0 0.00 0.00 0.00 61 1005.9
20260504211625 82 176 7.0 19.0 0.00 0.00 0.00 60 1005.8
20260504211121 82 177 5.0 20.0 0.00 0.00 0.00 62 1005.8
20260504210619 82 170 5.0 15.0 0.00 0.00 0.00 61 1005.9
20260504210115 82 168 4.0 20.0 0.00 0.00 0.00 60 1006.3
20260504205613 82 187 5.0 23.0 0.00 0.00 0.00 61 1006.2
20260504205110 82 172 10.0 15.0 0.00 0.00 0.00 60 1006.2
20260504204608 82 181 14.0 20.0 0.00 0.00 0.00 60 1006.2
20260504204107 82 160 13.0 23.0 0.00 0.00 0.00 59 1006.4
20260504203605 82 179 7.0 20.0 0.00 0.00 0.00 60 1006.6
20260504203102 82 175 11.0 25.0 0.00 0.00 0.00 60 1006.5
20260504202557 83 183 3.0 13.0 0.00 0.00 0.00 61 1006.8
20260504202054 82 172 7.0 22.0 0.00 0.00 0.00 60 1006.6
20260504201551 83 215 3.0 17.0 0.00 0.00 0.00 62 1007.0
20260504201049 82 198 5.0 22.0 0.00 0.00 0.00 61 1007.1
20260504200545 82 181 5.0 19.0 0.00 0.00 0.00 60 1007.2
20260504200042 82 151 3.0 16.0 0.00 0.00 0.00 60 1007.2
20260504195538 81 179 8.0 24.0 0.00 0.00 0.00 62 1007.5
20260504195035 82 142 8.0 13.0 0.00 0.00 0.00 61 1007.5
20260504194531 82 189 8.0 21.0 0.00 0.00 0.00 60 1007.4
20260504194027 82 178 4.0 19.0 0.00 0.00 0.00 62 1007.9
20260504193524 82 201 6.0 20.0 0.00 0.00 0.00 60 1008.1
20260504193022 81 159 7.0 13.0 0.00 0.00 0.00 62 1008.0
20260504192520 81 175 7.0 20.0 0.00 0.00 0.00 61 1007.9
20260504192018 82 210 5.0 17.0 0.00 0.00 0.00 61 1008.0
20260504191516 80 205 5.0 16.0 0.00 0.00 0.00 63 1008.1
20260504191012 80 186 8.0 19.0 0.00 0.00 0.00 62 1008.1
20260504190508 80 219 3.0 14.0 0.00 0.00 0.00 63 1007.9
20260504190004 79 174 5.0 24.0 0.00 0.00 0.00 64 1008.4
20260504185501 80 213 7.0 17.0 0.00 0.00 0.00 61 1008.4
20260504184958 80 145 9.0 18.0 0.00 0.00 0.00 62 1008.3
20260504184453 79 180 22.0 29.0 0.00 0.00 0.00 63 1008.5
20260504183949 79 182 10.0 23.0 0.00 0.00 0.00 63 1008.5
20260504183446 79 216 4.0 17.0 0.00 0.00 0.00 63 1008.7
20260504182944 78 177 10.0 21.0 0.00 0.00 0.00 63 1008.8
20260504182440 79 214 12.0 16.0 0.00 0.00 0.00 63 1008.9
20260504181938 80 210 9.0 15.0 0.00 0.00 0.00 62 1008.8
20260504181435 79 200 7.0 17.0 0.00 0.00 0.00 64 1009.0
20260504180934 78 208 4.0 15.0 0.00 0.00 0.00 65 1008.9
20260504180432 79 159 12.0 12.0 0.00 0.00 0.00 62 1009.1
20260504175930 78 238 4.0 20.0 0.00 0.00 0.00 66 1008.9
20260504175427 78 185 4.0 17.0 0.00 0.00 0.00 65 1009.2
20260504174925 77 163 6.0 26.0 0.00 0.00 0.00 64 1009.2
20260504174422 77 217 9.0 17.0 0.00 0.00 0.00 64 1009.5
20260504173919 77 221 5.0 30.0 0.00 0.00 0.00 64 1009.3
20260504173416 77 202 11.0 29.0 0.00 0.00 0.00 63 1009.5
20260504172913 78 217 3.0 13.0 0.00 0.00 0.00 65 1009.3
20260504172409 77 193 9.0 20.0 0.00 0.00 0.00 64 1009.5
20260504171905 77 201 11.0 20.0 0.00 0.00 0.00 63 1009.7
20260504171403 77 218 8.0 18.0 0.00 0.00 0.00 64 1010.0
20260504170859 77 239 11.0 14.0 0.00 0.00 0.00 64 1010.0
20260504170356 77 179 5.0 22.0 0.00 0.00 0.00 65 1010.0
20260504160315 74 191 4.0 17.0 0.00 0.00 0.00 67 1010.9
20260504150740 70 201 5.0 31.0 0.00 0.00 0.00 73 1011.0
20260504150236 70 186 11.0 27.0 0.00 0.00 0.00 73 1010.9
20260504141206 68 214 16.0 19.0 0.00 0.00 0.00 75 1011.3
20260504140703 68 198 4.0 16.0 0.00 0.00 0.00 76 1011.3
20260504140158 68 177 9.0 26.0 0.00 0.00 0.00 77 1011.1
20260504130626 64 182 5.0 17.0 0.00 0.00 0.00 82 1011.4
20260504130123 64 218 8.0 16.0 0.00 0.00 0.00 82 1011.4